EW0454 Weather Reports


Display with metric or nautical units.
time (UTC)temp
F
wind
direction
speed
MPH
gust
MPH
rain 1hr
in
rain 24hr
in
rain mn
in
humidity
%
barometer
mb
20190425193123 60 5 4.0 7.0 0.00 0.00 0.00 49 977.5
20190425191712 60 162 0.0 3.0 0.00 0.00 0.00 52 977.4
20190425190102 59 180 3.0 10.0 0.00 0.00 0.00 53 977.6
20190425184615 58 178 3.0 7.0 0.00 0.00 0.00 53 977.6
20190425183124 58 130 0.0 5.0 0.00 0.00 0.00 54 977.5
20190425181531 57 277 2.0 6.0 0.00 0.00 0.00 58 977.6
20190425180049 55 128 3.0 9.0 0.00 0.00 0.00 59 977.9
20190425174531 55 250 2.0 9.0 0.00 0.00 0.00 61 978.2
20190425173102 54 290 4.0 9.0 0.00 0.00 0.00 60 978.4
20190425171522 53 5 4.0 9.0 0.00 0.00 0.00 61 978.5
20190425170039 53 181 1.0 6.0 0.00 0.00 0.00 63 978.6
20190425164542 54 186 2.0 6.0 0.00 0.00 0.00 64 978.6
20190425163031 52 194 2.0 7.0 0.00 0.00 0.00 65 978.7
20190425161549 51 159 0.0 11.0 0.00 0.00 0.00 65 979.0
20190425160022 50 167 1.0 3.0 0.00 0.00 0.00 66 978.9
20190425154507 50 287 4.0 7.0 0.00 0.00 0.00 68 979.1
20190425153002 49 51 1.0 5.0 0.00 0.00 0.00 69 979.4
20190425151659 48 105 2.0 6.0 0.00 0.00 0.00 70 979.2
20190425150158 47 309 0.0 4.0 0.00 0.00 0.00 71 979.3
20190425144851 47 89 0.0 2.0 0.00 0.00 0.00 71 979.3
20190425143135 46 283 0.0 4.0 0.00 0.00 0.00 73 979.2
20190425141722 46 58 1.0 4.0 0.00 0.00 0.00 73 979.2
20190425140109 45 44 2.0 5.0 0.00 0.00 0.00 75 979.2
20190425134639 45 17 2.0 8.0 0.00 0.00 0.00 74 979.4
20190425133209 44 327 0.0 5.0 0.00 0.00 0.00 78 979.4
20190425131621 44 360 0.0 4.0 0.00 0.00 0.00 77 979.4
20190425130107 44 274 1.0 5.0 0.00 0.00 0.00 78 979.5
20190425124649 43 219 1.0 5.0 0.00 0.00 0.00 79 979.3
20190425123135 43 355 2.0 7.0 0.00 0.00 0.00 80 979.4
20190425121553 43 329 0.0 5.0 0.00 0.00 0.00 82 979.3
20190425120122 42 220 0.0 4.0 0.00 0.00 0.00 83 979.3
20190425114600 42 311 0.0 2.0 0.00 0.00 0.00 87 979.1
20190425113106 40 277 0.0 2.0 0.00 0.00 0.00 94 979.1
20190425111541 38 276 0.0 0.0 0.00 0.00 0.00 96 978.9
20190425110108 37 276 0.0 0.0 0.00 0.00 0.00 97 978.6
20190425104605 35 276 0.0 1.0 0.00 0.00 0.00 96 978.2
20190425103046 34 276 0.0 0.0 0.00 0.00 0.00 95 977.9
20190425101537 34 276 0.0 1.0 0.00 0.00 0.00 94 977.7
20190425100027 35 276 0.0 1.0 0.00 0.00 0.00 93 977.5
20190425094534 35 276 0.0 2.0 0.00 0.00 0.00 93 977.4
20190425093040 36 276 0.0 2.0 0.00 0.00 0.00 93 977.3
20190425090015 38 276 0.0 2.0 0.00 0.00 0.00 92 977.3
20190425084518 38 277 0.0 2.0 0.00 0.00 0.00 92 977.2
20190425083022 38 279 0.0 1.0 0.00 0.00 0.00 93 977.2
20190425081539 38 279 0.0 2.0 0.00 0.00 0.00 93 977.3
20190425080013 38 279 0.0 2.0 0.00 0.00 0.00 93 977.5
20190425074522 38 239 0.0 3.0 0.00 0.00 0.00 93 977.3
20190425073022 38 240 0.0 3.0 0.00 0.00 0.00 93 977.3
20190425071512 37 240 0.0 3.0 0.00 0.00 0.00 95 977.3
20190425070008 37 295 0.0 2.0 0.00 0.00 0.00 95 977.4
20190425064511 37 295 0.0 3.0 0.00 0.00 0.00 95 977.2
20190425063009 36 296 0.0 2.0 0.00 0.00 0.00 95 977.3
20190425061504 36 296 0.0 1.0 0.00 0.00 0.00 94 977.3
20190425060245 36 296 0.0 1.0 0.00 0.00 0.00 93 977.2
20190425054737 37 296 0.0 1.0 0.00 0.02 0.00 91 977.2
20190425053223 38 296 0.0 4.0 0.00 0.02 0.00 89 977.0
20190425051641 39 315 0.0 2.0 0.00 0.02 0.00 87 976.9
20190425050144 41 305 0.0 1.0 0.00 0.02 0.00 85 976.9
20190425044659 42 304 0.0 2.0 0.00 0.09 0.00 84 976.9
20190425043134 42 235 0.0 2.0 0.00 0.09 0.00 86 977.0
20190425041642 42 235 0.0 2.0 0.00 0.09 0.00 86 976.9
20190425040118 42 240 0.0 1.0 0.00 0.09 0.00 85 977.1
20190425034606 42 242 0.0 0.0 0.00 0.18 0.09 84 976.8
20190425033137 43 242 0.0 0.0 0.00 0.18 0.09 82 976.7
20190425031711 43 241 0.0 7.0 0.00 0.18 0.09 81 976.5
20190425030126 43 257 0.0 5.0 0.00 0.18 0.09 81 976.5
20190425024620 44 349 2.0 5.0 0.00 0.23 0.09 80 976.5
20190425023117 44 205 1.0 8.0 0.00 0.23 0.09 80 976.6
20190425021610 44 209 1.0 8.0 0.00 0.23 0.09 79 976.6
20190425020118 44 258 2.0 8.0 0.00 0.23 0.09 78 976.8
20190425014602 45 175 0.0 3.0 0.00 0.23 0.09 76 976.7
20190425013106 45 342 1.0 3.0 0.00 0.23 0.09 75 976.6
20190425011553 45 68 0.0 3.0 0.00 0.23 0.09 76 976.4
20190425010032 45 69 0.0 3.0 0.00 0.23 0.09 75 976.3
20190425004557 45 302 0.0 3.0 0.00 0.23 0.09 74 976.1
20190425003042 45 294 0.0 4.0 0.00 0.23 0.09 74 976.0
20190425001635 46 11 0.0 4.0 0.00 0.23 0.09 73 975.5
20190425000029 46 275 1.0 6.0 0.00 0.23 0.09 73 975.2
20190424234547 46 298 1.0 5.0 0.00 0.23 0.09 73 975.1
20190424233020 46 192 2.0 6.0 0.00 0.23 0.09 72 974.8
20190424231546 47 279 1.0 5.0 0.00 0.23 0.09 72 974.8
20190424230036 47 320 2.0 8.0 0.00 0.23 0.09 72 974.6
20190424224520 47 5 0.0 7.0 0.00 0.23 0.09 72 974.4
20190424223012 47 244 1.0 8.0 0.00 0.23 0.09 71 974.2
20190424221517 48 226 2.0 6.0 0.00 0.23 0.09 71 973.9
20190424220007 48 263 2.0 7.0 0.00 0.23 0.09 71 973.7
20190424214509 48 273 4.0 14.0 0.00 0.23 0.09 71 973.5
20190424213001 48 235 2.0 7.0 0.00 0.23 0.09 71 973.3
20190424211640 48 277 3.0 10.0 0.00 0.23 0.09 71 973.1
20190424210225 48 250 2.0 8.0 0.00 0.23 0.09 71 973.1
20190424204649 49 246 1.0 11.0 0.00 0.23 0.09 70 972.9
20190424203137 49 306 2.0 9.0 0.00 0.23 0.09 70 972.7
20190424201620 49 310 2.0 9.0 0.00 0.23 0.09 71 972.6
20190424200333 49 279 1.0 8.0 0.00 0.23 0.09 71 972.5
20190424194644 50 190 4.0 9.0 0.00 0.23 0.09 69 972.4